Weather History for Mansfield, OH

Change the Weather History Date:

Thursday, October 20, 2011

  Actual Average Record
Temperature  
Mean Temperature 45 °F 50 °F  
Max Temperature 48 °F 60 °F 79 °F (1953)
Min Temperature 42 °F 41 °F 21 °F (1930)
Degree Days  
Heating Degree Days 20 15  
Month to date heating degree days 172 237  
Since 1 July heating degree days 290 387  
Cooling Degree Days 0 0  
Month to date cooling degree days 2 5  
Year to date cooling degree days 896 630  
Moisture  
Dew Point 43 °F    
Average Humidity 96    
Maximum Humidity 100    
Minimum Humidity 92    
Precipitation  
Precipitation 0.21 in 0.09 in 0.37 in (1976)
Month to date precipitation 2.76 1.87  
Year to date precipitation 45.19 36.02  
Snow  
Snow 0.00 in 0.00 in - ()
Month to date snowfall 0.0 0.1  
Since 1 July snowfall 0.0 0.1  
Since 1 September snowfall 0.0 0.1  
Snow Depth 0.00 in    
Sea Level Pressure  
Sea Level Pressure 29.40 in    
Wind  
Wind Speed 17 mph (SW)    
Max Wind Speed 25 mph    
Max Gust Speed 37 mph    
Visibility 6 miles    
Events Rain    
T = Trace of Precipitation, MM = Missing Value Source: NWS Daily Summary

Daily Weather History Graph

Daily Weather History Graph

Search for Another Location

Airport:

Trip Planner

Search our weather history database for the weather conditions in past years. The results will help you decide how hot, cold, wet, or windy it might be!

Date:

Astronomy

Oct. 20, 2011 Rise Set
Actual Time 7:46 AM EDT 6:42 PM EDT
Civil Twilight 7:18 AM EDT 7:10 PM EDT
Nautical Twilight 6:46 AM EDT 7:42 PM EDT
Astronomical Twilight 6:15 AM EDT 8:13 PM EDT
Moon 12:27 AM EDT (10/20) 2:53 PM EDT (10/20)
Length of Visible Light 11h 51m
Length of Day
10h 56m
Last Quarter, 44% of the Moon is Illuminated
Oct 20
Last Quarter
Oct 26
New
Nov 2
First Quarter
Nov 10
Full
Nov 18
Last Quarter

Hourly Weather History & Observations

Time (EDT) Temp. Windchill Dew Point Humidity Pressure Visibility Wind Dir Wind Speed Gust Speed Precip Events Conditions
12:39 AM 48.2 °F - 48.2 °F 100% 29.18 in 10.0 mi South 16.1 mph 31.1 mph N/A   Overcast
12:52 AM 48.0 °F - 46.9 °F 96% 29.18 in 10.0 mi South 19.6 mph 27.6 mph N/A   Overcast
1:52 AM 46.9 °F - 46.9 °F 100% 29.16 in 4.0 mi South 18.4 mph - 0.00 in Rain Light Rain
2:52 AM 46.0 °F 38.5 °F 45.0 °F 96% 29.17 in 10.0 mi South 19.6 mph 26.5 mph 0.00 in   Overcast
3:16 AM 44.6 °F 37.2 °F 44.6 °F 100% 29.18 in 9.0 mi South 17.3 mph 27.6 mph N/A   Overcast
3:52 AM 45.0 °F 38.2 °F 44.1 °F 97% 29.18 in 10.0 mi South 15.0 mph 23.0 mph 0.00 in   Overcast
4:52 AM 44.1 °F 36.2 °F 44.1 °F 100% 29.18 in 5.0 mi South 18.4 mph 24.2 mph 0.00 in   Overcast
5:15 AM 44.6 °F 37.4 °F 44.6 °F 100% 29.17 in 6.0 mi South 16.1 mph 31.1 mph N/A   Overcast
5:25 AM 44.6 °F 36.4 °F 42.8 °F 93% 29.17 in 7.0 mi South 20.7 mph 29.9 mph N/A   Overcast
5:52 AM 44.1 °F 35.4 °F 43.0 °F 96% 29.18 in 10.0 mi South 21.9 mph 28.8 mph N/A   Overcast
6:19 AM 42.8 °F 34.5 °F 42.8 °F 100% 29.18 in 7.0 mi South 18.4 mph 27.6 mph N/A   Overcast
6:52 AM 43.0 °F 34.2 °F 43.0 °F 100% 29.18 in 6.0 mi South 20.7 mph 27.6 mph 0.00 in   Light Drizzle
7:52 AM 44.1 °F 36.5 °F 44.1 °F 100% 29.19 in 10.0 mi South 17.3 mph 25.3 mph 0.00 in   Light Drizzle
8:52 AM 43.0 °F 34.8 °F 42.1 °F 97% 29.22 in 10.0 mi SSW 18.4 mph - 0.00 in   Light Drizzle
9:52 AM 43.0 °F 35.1 °F 41.0 °F 93% 29.24 in 10.0 mi SSW 17.3 mph 28.8 mph 0.00 in   Light Drizzle
10:52 AM 42.1 °F 33.9 °F 41.0 °F 96% 29.26 in 7.0 mi South 17.3 mph 27.6 mph 0.00 in   Overcast
11:21 AM 42.8 °F 34.8 °F 41.0 °F 93% 29.25 in 9.0 mi SSW 17.3 mph 28.8 mph N/A   Overcast
11:52 AM 42.8 °F 34.0 °F 41.0 °F 93% 29.26 in 8.0 mi SSW 20.7 mph 32.2 mph N/A   Overcast
12:26 PM 44.6 °F 36.6 °F 42.8 °F 93% 29.27 in 8.0 mi SSW 19.6 mph 33.4 mph N/A   Overcast
12:49 PM 42.8 °F 34.5 °F 42.8 °F 100% 29.28 in 3.0 mi SSW 18.4 mph 31.1 mph 0.00 in Rain Light Rain
12:52 PM 43.0 °F 34.2 °F 43.0 °F 100% 29.29 in 3.0 mi SSW 20.7 mph 31.1 mph 0.00 in Rain Light Rain
12:59 PM 44.6 °F 37.2 °F 42.8 °F 93% 29.29 in 2.5 mi SW 17.3 mph 28.8 mph 0.00 in Rain Light Rain
1:52 PM 45.0 °F 37.6 °F 44.1 °F 97% 29.32 in 2.5 mi SW 17.3 mph 29.9 mph 0.02 in Rain Light Rain
2:20 PM 44.6 °F 35.9 °F 42.8 °F 93% 29.33 in 2.0 mi WSW 23.0 mph 32.2 mph 0.01 in Rain Light Rain
2:27 PM 44.6 °F 36.4 °F 42.8 °F 93% 29.34 in 6.0 mi SW 20.7 mph 32.2 mph 0.01 in Rain Light Rain
2:47 PM 44.6 °F 36.9 °F 42.8 °F 93% 29.36 in 2.0 mi WSW 18.4 mph 29.9 mph 0.02 in Rain Light Rain
2:52 PM 43.0 °F 34.5 °F 43.0 °F 100% 29.37 in 2.0 mi WSW 19.6 mph 31.1 mph 0.02 in Rain Light Rain
2:58 PM 42.8 °F 33.5 °F 42.8 °F 100% 29.36 in 3.0 mi WSW 23.0 mph 35.7 mph 0.00 in Rain Light Rain
3:10 PM 42.8 °F 34.8 °F 42.8 °F 100% 29.38 in 2.5 mi WSW 17.3 mph 31.1 mph 0.00 in Rain Light Rain
3:52 PM 42.8 °F 36.2 °F 41.0 °F 93% 29.41 in 2.5 mi WSW 12.7 mph 29.9 mph N/A Rain Light Rain
3:59 PM 42.8 °F 35.1 °F 42.8 °F 100% 29.41 in 7.0 mi WSW 16.1 mph 23.0 mph 0.01 in Rain Light Rain
4:41 PM 42.8 °F 35.4 °F 42.8 °F 100% 29.45 in 4.0 mi WSW 15.0 mph 23.0 mph 0.02 in Rain Light Rain
4:48 PM 42.8 °F 35.1 °F 42.8 °F 100% 29.45 in 9.0 mi WSW 16.1 mph 26.5 mph 0.02 in Rain Light Rain
4:52 PM 43.0 °F 35.4 °F 42.1 °F 97% 29.47 in 10.0 mi WSW 16.1 mph 26.5 mph 0.02 in Rain Light Rain
5:52 PM 43.0 °F 36.4 °F 43.0 °F 100% 29.51 in 6.0 mi WSW 12.7 mph 21.9 mph 0.02 in Rain Light Rain
5:59 PM 42.8 °F 35.4 °F 42.8 °F 100% 29.50 in 5.0 mi WSW 15.0 mph 23.0 mph 0.01 in Rain Light Rain
6:31 PM 44.6 °F 37.4 °F 42.8 °F 93% 29.53 in 2.5 mi WSW 16.1 mph 25.3 mph 0.02 in Rain Light Rain
6:52 PM 44.1 °F 36.8 °F 42.1 °F 93% 29.56 in 7.0 mi WSW 16.1 mph 27.6 mph 0.02 in Rain Light Rain
7:26 PM 44.6 °F 38.1 °F 42.8 °F 93% 29.57 in 7.0 mi WSW 13.8 mph 21.9 mph 0.02 in Rain Light Rain
7:35 PM 44.6 °F 38.1 °F 42.8 °F 93% 29.57 in 4.0 mi WSW 13.8 mph 23.0 mph 0.04 in Rain Rain
7:42 PM 44.6 °F 37.2 °F 42.8 °F 93% 29.58 in 6.0 mi WSW 17.3 mph 33.4 mph 0.05 in Rain Light Rain
7:52 PM 44.1 °F 37.7 °F 43.0 °F 96% 29.60 in 8.0 mi WSW 12.7 mph 25.3 mph 0.06 in Rain Light Rain
8:00 PM 44.6 °F 36.4 °F 42.8 °F 93% 29.59 in 8.0 mi WSW 20.7 mph 31.1 mph 0.00 in Rain Light Rain
8:38 PM 42.8 °F 34.5 °F 42.8 °F 100% 29.62 in 6.0 mi West 18.4 mph 36.8 mph 0.00 in Rain Light Rain
8:49 PM 42.8 °F 35.1 °F 42.8 °F 100% 29.63 in 6.0 mi West 16.1 mph 29.9 mph 0.01 in Rain Light Rain
8:52 PM 43.0 °F 35.7 °F 42.1 °F 97% 29.65 in 6.0 mi West 15.0 mph 29.9 mph 0.01 in Rain Light Rain
9:07 PM 42.8 °F 35.1 °F 42.8 °F 100% 29.64 in 8.0 mi West 16.1 mph 26.5 mph 0.01 in Rain Light Rain
9:21 PM 42.8 °F 36.2 °F 42.8 °F 100% 29.65 in 5.0 mi WSW 12.7 mph 27.6 mph 0.01 in Rain Light Rain
9:36 PM 42.8 °F 34.5 °F 42.8 °F 100% 29.66 in 5.0 mi WSW 18.4 mph 29.9 mph 0.02 in Rain Light Rain
9:49 PM 42.8 °F 34.8 °F 41.0 °F 93% 29.66 in 9.0 mi West 17.3 mph 28.8 mph 0.02 in Rain Light Rain
9:52 PM 43.0 °F 34.8 °F 42.1 °F 97% 29.68 in 10.0 mi WSW 18.4 mph 28.8 mph 0.02 in Rain Light Rain
10:52 PM 43.0 °F 36.4 °F 41.0 °F 93% 29.73 in 10.0 mi West 12.7 mph 24.2 mph 0.01 in   Overcast
11:10 PM 42.8 °F 36.6 °F 42.8 °F 100% 29.72 in 4.0 mi WSW 11.5 mph 27.6 mph N/A Rain Light Rain
11:52 PM 42.1 °F 35.2 °F 41.0 °F 96% 29.76 in 10.0 mi WSW 12.7 mph 24.2 mph 0.01 in   Overcast